{"data":{"norad_id":48672,"epoch":"2026-05-25T04:24:19.553760Z","epoch_age_seconds":55092,"freshness":"FRESH","line1":"1 48672U 21044AL  26145.18355965  .00000823  00000+0  38294-4 0  9990","line2":"2 48672  53.1603 108.5382 0001220  75.4369 284.6767 15.31697491275676","mean_motion":15.31697491,"eccentricity":0.000122,"inclination_deg":53.1603,"raan_deg":108.5382,"arg_perigee_deg":75.4369,"mean_anomaly_deg":284.6767,"bstar":3.8294e-5,"rev_number":27567,"period_min":94.013341959571,"perigee_km":469.91191052842,"apogee_km":471.58303834018,"semimajor_km":6848.8844744343,"source":"CELESTRAK","updated_at":"2026-05-25T13:38:16.759178Z"}}